{"data":{"norad_id":66699,"epoch":"2026-09-20T20:43:29.016192Z","epoch_age_seconds":89439,"freshness":"FRESH","line1":"1 66699U 25276AK  26263.86353028  .00004460  00000+0  20293-3 0  9994","line2":"2 66699  97.4120 335.9206 0004811  49.9083 310.2574 15.21216816 44964","mean_motion":15.21216816,"eccentricity":0.0004811,"inclination_deg":97.412,"raan_deg":335.9206,"arg_perigee_deg":49.9083,"mean_anomaly_deg":310.2574,"bstar":0.00020293,"rev_number":4496,"period_min":94.661062437269,"perigee_km":498.85902916903,"apogee_km":505.47925974122,"semimajor_km":6880.3061444551,"source":"CELESTRAK","updated_at":"2026-09-21T09:00:16.129203Z"}}